Terug naar catalogus

STARLINK-35682

ActiefCommunicatieVLEO
NORAD 66467·PAYLOAD·🇺🇸 United States

Gelanceerd Nov 15, 2025 vanaf Cape Canaveral Space Force Station

Loading…

Volgende Passages (komende 24 uur)

TLE

VersSource: CelesTrak SupGP

Epoch: Sep 14, 2026, 21:25 UTC

1 66467C 25262M   26257.89284722 -.00016241  00000+0 -58818-3 0  2575
2 66467  43.0035 308.0929 0001945 276.7157 221.3685 15.27590153    17

Volg STARLINK-35682 in realtime met AllMySat

Download on the App Store